Tillbaka till svenska Fidonet
English   Information   Debug  
FILM   0/18
FNEWS_PUBLISH   5090
FN_SYSOP   42250
FN_SYSOP_OLD1   71952
FTP_FIDO   0/2
FTSC_PUBLIC   0/13992
FUNNY   0/4886
GENEALOGY.EUR   0/71
GET_INFO   105
GOLDED   0/408
HAM   294/16975
HOLYSMOKE   0/6791
HOT_SITES   0/1
HTMLEDIT   0/71
HUB203   466
HUB_100   264
HUB_400   39
HUMOR   0/29
IC   0/2851
INTERNET   0/424
INTERUSER   0/3
IP_CONNECT   719
JAMNNTPD   0/233
JAMTLAND   0/47
KATTY_KORNER   0/41
LAN   0/16
LINUX-USER   0/19
LINUXHELP   0/1155
LINUX   0/22471
LINUX_BBS   0/957
mail   18.68
mail_fore_ok   249
MENSA   0/341
MODERATOR   0/102
MONTE   0/992
MOSCOW_OKLAHOMA   0/1245
MUFFIN   0/783
MUSIC   0/321
N203_STAT   940
N203_SYSCHAT   313
NET203   321
NET204   69
NET_DEV   0/10
NORD.ADMIN   0/101
NORD.CHAT   0/2572
NORD.FIDONET   189
NORD.HARDWARE   0/28
NORD.KULTUR   0/114
NORD.PROG   0/32
NORD.SOFTWARE   0/88
NORD.TEKNIK   0/58
NORD   0/453
OCCULT_CHAT   0/93
OS2BBS   0/787
OS2DOSBBS   0/580
OS2HW   0/42
OS2INET   0/37
OS2LAN   0/134
OS2PROG   0/36
OS2REXX   0/113
OS2USER-L   207
OS2   0/4837
OSDEBATE   0/18996
PASCAL   0/490
PERL   0/457
PHP   0/45
POINTS   0/405
POLITICS   0/29554
POL_INC   0/14731
PSION   103
R20_ADMIN   1134
R20_AMATORRADIO   0/2
R20_BEST_OF_FIDONET   17
R20_CHAT   0/899
R20_DEPP   0/3
R20_DEV   400
R20_ECHO2   1992
R20_ECHOPRES   0/35
R20_ESTAT   0/719
R20_FIDONETPROG...
...RAM.MYPOINT
  0/2
R20_FIDONETPROGRAM   0/22
R20_FIDONET   0/248
R20_FILEFIND   0/24
R20_FILEFOUND   0/22
R20_HIFI   0/3
R20_INFO2   3886
R20_INTERNET   0/12940
R20_INTRESSE   0/60
R20_INTR_KOM   0/99
R20_KANDIDAT.CHAT   42
R20_KANDIDAT   28
R20_KOM_DEV   112
R20_KONTROLL   0/13380
R20_KORSET   0/18
R20_LOKALTRAFIK   0/24
R20_MODERATOR   0/1852
R20_NC   76
R20_NET200   245
R20_NETWORK.OTH...
...ERNETS
  0/13
R20_OPERATIVSYS...
...TEM.LINUX
  0/45
R20_PROGRAMVAROR   0/1
R20_REC2NEC   534
R20_SFOSM   0/341
R20_SF   0/108
R20_SPRAK.ENGLISH   0/1
R20_SQUISH   107
R20_TEST   2
R20_WORST_OF_FIDONET   21
RAR   0/9
RA_MULTI   106
RA_UTIL   0/162
REGCON.EUR   0/2072
REGCON   0/13
SCIENCE   0/1206
SF   0/239
SHAREWARE_SUPPORT   0/5146
SHAREWRE   0/14
SIMPSONS   0/169
STATS_OLD1   0/2539.065
STATS_OLD2   0/2530
STATS_OLD3   0/2395.095
STATS_OLD4   0/1692.25
SURVIVOR   0/495
SYSOPS_CORNER   0/3
SYSOP   0/84
TAGLINES   0/112
TEAMOS2   0/4530
TECH   0/2617
TEST.444   0/105
TRAPDOOR   0/19
TREK   0/755
TUB   0/290
UFO   0/40
UNIX   0/1316
USA_EURLINK   0/102
USR_MODEMS   0/1
VATICAN   0/2740
VIETNAM_VETS   0/14
VIRUS   0/378
VIRUS_INFO   0/201
VISUAL_BASIC   0/473
WHITEHOUSE   0/5187
WIN2000   0/101
WIN32   0/30
WIN95   0/4291
WIN95_OLD1   0/70272
WINDOWS   0/1517
WWB_SYSOP   0/419
WWB_TECH   0/810
ZCC-PUBLIC   0/1
ZEC   4

 
4DOS   0/134
ABORTION   0/7
ALASKA_CHAT   0/506
ALLFIX_FILE   0/1313
ALLFIX_FILE_OLD1   0/7997
ALT_DOS   0/152
AMATEUR_RADIO   0/1039
AMIGASALE   0/14
AMIGA   0/331
AMIGA_INT   0/1
AMIGA_PROG   0/20
AMIGA_SYSOP   0/26
ANIME   0/15
ARGUS   0/924
ASCII_ART   0/340
ASIAN_LINK   0/651
ASTRONOMY   0/417
AUDIO   0/92
AUTOMOBILE_RACING   0/105
BABYLON5   0/17862
BAG   135
BATPOWER   0/361
BBBS.ENGLISH   0/382
BBSLAW   0/109
BBS_ADS   0/5290
BBS_INTERNET   0/507
BIBLE   0/3563
BINKD   0/1119
BINKLEY   0/215
BLUEWAVE   0/2173
CABLE_MODEMS   0/25
CBM   0/46
CDRECORD   0/66
CDROM   0/20
CLASSIC_COMPUTER   0/378
COMICS   0/15
CONSPRCY   0/899
COOKING   42875
COOKING_OLD1   0/24719
COOKING_OLD2   0/40862
COOKING_OLD3   0/37489
COOKING_OLD4   0/35496
COOKING_OLD5   9370
C_ECHO   0/189
C_PLUSPLUS   0/31
DIRTY_DOZEN   0/201
DOORGAMES   0/2397
DOS_INTERNET   0/196
duplikat   6103
ECHOLIST   0/18295
EC_SUPPORT   0/318
ELECTRONICS   0/359
ELEKTRONIK.GER   1534
ENET.LINGUISTIC   0/13
ENET.POLITICS   0/4
ENET.SOFT   0/11701
ENET.SYSOP   34573
ENET.TALKS   0/32
ENGLISH_TUTOR   0/2000
EVOLUTION   0/1335
FDECHO   0/217
FDN_ANNOUNCE   0/7068
FIDONEWS   25344
FIDONEWS_OLD1   0/49742
FIDONEWS_OLD2   0/35949
FIDONEWS_OLD3   0/30874
FIDONEWS_OLD4   0/37224
FIDO_SYSOP   12979
FIDO_UTIL   0/180
FILEFIND   0/209
FILEGATE   0/212
Möte HAM, 16975 texter
 lista första sista föregående nästa
Text 405, 763 rader
Skriven 2005-05-20 02:16:36 av Amsat List (1:323/120.0)
Ärende: 
========
SB KEPS @ AMSAT  $ORB05139.O
Orbital Elements  05139.OSCAR

HR AMSAT ORBITAL ELEMENTS FOR OSCAR SATELLITES
FROM WA5QGD FORT WORTH,TX May 19, 2005
SEND SUBSCRIBE/UNSUBSCRIBE TO majordomo@amsat.org ONLY
BID: ORB05139.O
TO ALL RADIO AMATEURS BT

Satellite: AO-07
Catalog number: 07530
Epoch time:      05138.94277786
Element set:    0431
Inclination:      101.6275 deg
RA of node:       185.7222 deg
Eccentricity:    0.0011958
Arg of perigee:   292.1729 deg
Mean anomaly:     067.8074 deg
Mean motion:   12.53570809 rev/day
Decay rate:       -2.8e-07 rev/day^2
Epoch rev:           39598
Checksum:              330

Satellite: AO-10
Catalog number: 14129
Epoch time:      05138.54872136
Element set:    0183
Inclination:      027.3001 deg
RA of node:       031.9667 deg
Eccentricity:    0.6032570
Arg of perigee:   190.0146 deg
Mean anomaly:     148.1620 deg
Mean motion:   02.05864442 rev/day
Decay rate:       -5.3e-07 rev/day^2
Epoch rev:           16492
Checksum:              271

Satellite: UO-11
Catalog number: 14781
Epoch time:      05138.78443755
Element set:     784
Inclination:      098.2012 deg
RA of node:       135.7631 deg
Eccentricity:    0.0010415
Arg of perigee:   095.1055 deg
Mean anomaly:     265.1305 deg
Mean motion:   14.79236575 rev/day
Decay rate:       8.01e-06 rev/day^2
Epoch rev:           13745
Checksum:              296

Satellite: RS-10/11
Catalog number: 18129
Epoch time:      05138.79603570
Element set:    0692
Inclination:      082.9233 deg
RA of node:       259.8632 deg
Eccentricity:    0.0013292
Arg of perigee:   105.7183 deg
Mean anomaly:     254.5444 deg
Mean motion:   13.72759036 rev/day
Decay rate:        4.8e-07 rev/day^2
Epoch rev:           89704
Checksum:              321

Satellite: FO-20
Catalog number: 20480
Epoch time:      05138.91709260
Element set:    0907
Inclination:      099.0192 deg
RA of node:       318.7005 deg
Eccentricity:    0.0540006
Arg of perigee:   306.0023 deg
Mean anomaly:     049.2160 deg
Mean motion:   12.83346556 rev/day
Decay rate:       -8.0e-08 rev/day^2
Epoch rev:           71574
Checksum:              276

Satellite: RS-12/13
Catalog number: 21089
Epoch time:      05139.48722783
Element set:     917
Inclination:      082.9189 deg
RA of node:       292.1847 deg
Eccentricity:    0.0029653
Arg of perigee:   156.4474 deg
Mean anomaly:     203.8050 deg
Mean motion:   13.74450465 rev/day
Decay rate:        5.6e-07 rev/day^2
Epoch rev:           71655
Checksum:              332

Satellite: RS-15
Catalog number: 23439
Epoch time:      05138.95882900
Element set:    0863
Inclination:      064.8150 deg
RA of node:       154.8206 deg
Eccentricity:    0.0163394
Arg of perigee:   321.3063 deg
Mean anomaly:     037.6247 deg
Mean motion:   11.27551599 rev/day
Decay rate:       -3.9e-07 rev/day^2
Epoch rev:           42809
Checksum:              317

Satellite: FO-29
Catalog number: 24278
Epoch time:      05138.70060206
Element set:    0964
Inclination:      098.5443 deg
RA of node:       192.2451 deg
Eccentricity:    0.0349870
Arg of perigee:   252.7614 deg
Mean anomaly:     103.4958 deg
Mean motion:   13.52910946 rev/day
Decay rate:       -3.4e-07 rev/day^2
Epoch rev:           43220
Checksum:              306

Satellite: SO-33
Catalog number: 25509
Epoch time:      05138.82238666
Element set:    0373
Inclination:      031.4332 deg
RA of node:       198.5764 deg
Eccentricity:    0.0355885
Arg of perigee:   269.4447 deg
Mean anomaly:     086.5394 deg
Mean motion:   14.28002900 rev/day
Decay rate:       6.83e-06 rev/day^2
Epoch rev:           34262
Checksum:              329

Satellite: AO-40
Catalog number: 26609
Epoch time:      05138.66828019
Element set:     548
Inclination:      007.9431 deg
RA of node:       303.4102 deg
Eccentricity:    0.7936123
Arg of perigee:   040.0023 deg
Mean anomaly:     357.1759 deg
Mean motion:   01.25585533 rev/day
Decay rate:       -7.7e-07 rev/day^2
Epoch rev:            2089
Checksum:              297

Satellite: VO-52
Catalog number: 28650
Epoch time:      05139.29312485
Element set:      28
Inclination:      097.9079 deg
RA of node:       213.4062 deg
Eccentricity:    0.0026824
Arg of perigee:   199.8265 deg
Mean anomaly:     160.1901 deg
Mean motion:   14.80824787 rev/day
Decay rate:       7.25e-06 rev/day^2
Epoch rev:             208
Checksum:              312

/EX
SB KEPS @ AMSAT  $ORB05139.D
Orbital Elements  05139.MICROS

HR AMSAT ORBITAL ELEMENTS FOR THE MICROSATS
FROM WA5QGD FORT WORTH,TX May 19, 2005
SEND SUBSCRIBE/UNSUBSCRIBE TO majordomo@amsat.org ONLY
BID: ORB05139.D
TO ALL RADIO AMATEURS BT

Satellite: UO-14
Catalog number: 20437
Epoch time:      05138.83484271
Element set:     781
Inclination:      098.1932 deg
RA of node:       150.2009 deg
Eccentricity:    0.0009754
Arg of perigee:   283.9794 deg
Mean anomaly:     076.0303 deg
Mean motion:   14.31412021 rev/day
Decay rate:       1.44e-06 rev/day^2
Epoch rev:           79983
Checksum:              300

Satellite: AO-16
Catalog number: 20439
Epoch time:      05138.63514918
Element set:    0469
Inclination:      098.2072 deg
RA of node:       165.3760 deg
Eccentricity:    0.0010065
Arg of perigee:   292.9421 deg
Mean anomaly:     067.0695 deg
Mean motion:   14.31674759 rev/day
Decay rate:        7.2e-07 rev/day^2
Epoch rev:           79986
Checksum:              334

Satellite: WO-18
Catalog number: 20441
Epoch time:      05138.85097868
Element set:    0664
Inclination:      098.2181 deg
RA of node:       169.9408 deg
Eccentricity:    0.0010744
Arg of perigee:   293.8894 deg
Mean anomaly:     066.1163 deg
Mean motion:   14.31748044 rev/day
Decay rate:        5.3e-07 rev/day^2
Epoch rev:           79995
Checksum:              346

